Probability
2 2 4 6 8 8 9 10 10 9 7 6 5 3 1 1 1 1 2 2 1 1 1 0 0 0 0 0 0 0 0 0 0 0 0 0 0 0 0 0 0 0 0
2 3 5 6 7 9 10 11 11 10 8 6 5 3 2 1 1 1 1 2 1 1 1 1 1 0 0 0 0 0 0 0 0 0 0 0 0 0 0 0 0 0 0
4 4 6 6 7 9 10 12 13 12 9 7 5 4 3 3 2 2 2 2 1 0 1 2 2 1 0 0 1 0 0 0 0 0 0 0 0 0 0 0 0 0 0
5 5 6 6 7 8 10 12 12 12 12 10 8 6 4 3 3 2 2 2 1 0 1 2 2 1 0 0 0 0 0 0 0 0 0 0 0 0 0 0 0 0 0
3 4 6 7 8 8 10 11 11 11 13 13 11 8 5 3 2 1 1 1 1 1 2 3 2 1 0 0 0 0 0 0 0 0 0 0 0 0 0 0 0 0 0
1 2 5 7 9 10 10 10 10 11 11 12 11 10 6 3 1 0 1 2 1 1 2 3 3 2 1 1 0 0 0 0 0 0 0 0 0 0 0 0 0 0 0
0 1 3 6 8 10 11 11 11 12 11 10 10 9 7 3 1 1 2 2 1 1 2 3 3 3 3 2 1 0 0 0 0 0 0 0 0 0 0 0 0 0 0
0 1 2 4 6 8 10 11 12 14 13 10 9 9 6 3 2 3 3 1 1 1 2 3 4 4 3 2 1 1 0 0 0 0 0 0 0 0 0 0 0 0 0
0 0 2 3 5 6 7 8 9 12 13 10 9 8 5 3 3 4 3 1 1 2 2 2 4 5 4 3 2 1 0 0 0 0 0 0 0 0 0 0 0 0 0
0 1 3 4 4 4 4 5 6 7 9 9 8 6 4 3 2 3 2 1 1 2 2 2 3 5 5 4 2 1 0 0 0 0 0 0 0 0 0 0 0 0 0
1 1 3 5 5 4 3 3 3 4 4 5 4 4 3 1 1 1 1 0 0 1 2 2 3 5 5 3 1 0 0 0 0 0 0 0 0 0 0 0 0 0 0
1 2 3 4 5 4 3 2 2 1 1 1 1 2 2 1 0 0 0 0 0 1 2 3 3 4 4 3 2 1 0 0 0 0 0 0 0 1 1 1 0 0 0
2 2 2 2 2 1 1 1 1 0 0 0 0 1 1 0 0 0 0 0 0 0 1 2 2 3 2 2 1 1 0 0 0 0 0 0 1 2 2 1 0 0 0
1 1 1 0 0 0 1 1 0 0 0 0 0 0 0 0 0 0 0 0 0 0 0 1 1 1 1 0 0 0 0 0 0 0 0 0 1 2 2 1 0 0 0
1 0 0 0 1 1 2 2 1 0 0 0 0 0 0 0 0 0 0 0 0 0 0 0 0 0 0 0 0 0 0 0 0 0 0 0 0 1 1 2 1 0 0
0 0 0 0 1 2 3 2 1 0 0 0 0 0 0 0 0 0 0 0 0 0 0 0 0 0 0 0 0 0 0 0 0 0 0 0 0 0 1 2 3 2 0
0 0 0 0 1 2 2 2 1 0 0 0 0 0 0 0 0 0 0 0 0 0 0 0 0 0 0 0 0 0 0 0 0 0 0 0 0 0 0 2 4 3 1
0 0 0 0 0 1 1 1 1 0 0 0 0 0 0 0 0 0 0 0 0 0 0 0 0 0 0 0 0 0 0 0 0 0 0 0 0 0 0 1 2 2 2
0 0 0 0 0 0 0 0 0 0 0 0 0 0 0 0 0 0 0 0 0 0 0 0 0 0 0 0 0 0 0 0 0 0 0 0 0 0 0 0 1 1 1
0 0 0 0 0 0 0 0 0 0 0 0 0 0 0 0 0 0 0 0 0 0 0 0 0 0 0 0 0 0 0 0 0 0 0 0 0 0 0 0 0 0 0
0 0 0 0 0 0 0 0 0 0 0 0 0 0 0 0 0 0 0 0 0 0 0 0 0 0 0 0 0 0 0 0 0 0 0 0 0 0 0 0 0 0 0
0 0 0 0 0 0 0 0 0 0 0 0 0 0 0 0 0 0 0 0 0 0 0 0 0 0 0 0 0 0 0 0 0 0 0 0 0 0 0 0 0 0 0
0 0 0 0 0 0 0 0 0 0 0 0 0 0 0 0 0 0 0 0 0 0 0 0 0 0 0 0 0 0 0 0 0 0 0 0 0 0 0 0 0 0 0
0 0 0 0 0 0 0 0 0 0 0 0 0 0 0 0 0 0 0 0 0 0 0 0 0 0 0 0 0 0 0 0 0 0 0 0 0 0 0 0 0 0 0
0 0 0 0 0 0 0 0 0 0 0 0 0 0 0 0 0 0 0 0 0 0 0 0 0 0 0 0 0 0 0 0 0 0 0 0 0 0 0 0 0 0 0
0 0 0 0 0 0 0 0 0 0 0 0 0 0 0 0 0 0 0 0 0 0 0 0 0 0 0 0 0 0 0 0 0 0 0 0 0 0 0 0 0 0 0
Wind_Speed
2 3 6 7 8 8 8 7 7 7 7 7 7 7 7 7 8 8 8 7 8 8 8 9 9 10 10 10 11 11 12 12 12 12 11 11 12 12 13 13 11 9 14
5 4 7 7 8 7 7 7 7 7 6 6 6 6 6 7 7 7 7 6 7 7 8 8 9 9 10 10 10 11 11 11 12 11 9 8 9 11 12 12 11 8 13
7 5 6 7 7 7 7 7 6 6 6 6 5 5 5 6 6 6 5 6 6 7 7 8 8 9 9 9 9 10 11 10 10 9 8 4 6 10 11 11 11 13 13
7 5 5 7 7 7 7 7 6 6 5 5 5 5 5 5 5 5 5 6 6 6 7 7 8 8 8 9 8 8 9 9 8 7 4 3 4 9 11 11 12 13 13
6 5 5 7 7 7 7 7 6 5 5 5 5 5 5 5 5 5 5 6 6 6 6 7 7 7 7 7 8 8 9 9 8 6 3 3 3 8 11 11 12 12 12
5 4 5 7 7 6 7 6 6 6 5 5 4 5 4 5 5 6 5 5 6 6 6 7 6 6 7 7 7 8 9 8 6 3 3 3 3 8 10 11 11 11 12
5 4 5 6 6 6 6 6 6 6 5 5 4 4 4 5 5 5 5 5 5 6 7 7 7 6 6 6 7 7 8 7 5 3 3 2 4 8 10 10 11 11 11
6 5 4 6 6 5 5 5 5 5 5 5 5 4 4 4 5 5 5 5 6 6 7 7 7 6 6 6 6 6 7 6 5 4 2 2 5 8 9 10 10 10 11
5 5 3 3 4 4 4 4 4 4 5 5 5 4 4 4 4 4 4 5 6 6 6 6 6 6 6 6 6 6 7 6 3 2 2 2 5 8 8 9 10 10 10
4 4 3 3 2 2 2 4 4 4 4 4 4 4 4 3 3 3 2 4 5 6 6 6 6 6 5 5 6 6 6 5 3 2 1 2 6 8 8 9 9 10 10
2 2 3 3 3 2 2 3 3 4 3 4 3 4 3 2 1 2 2 4 5 5 6 6 5 5 5 4 5 5 5 2 2 1 1 3 6 7 8 8 8 9 10
3 2 2 3 3 3 2 2 1 2 2 2 2 2 2 1 1 2 2 4 4 4 5 5 5 4 3 2 3 4 2 3 2 1 1 5 7 7 8 8 8 8 9
4 3 3 3 3 3 2 2 1 1 1 1 2 2 2 2 1 1 1 2 2 2 2 3 3 2 2 2 2 2 2 2 1 1 2 5 6 7 8 8 8 9 9
3 3 3 3 2 3 2 2 2 1 1 1 1 2 2 1 1 1 1 1 1 1 1 1 1 2 2 2 2 2 2 2 1 1 1 4 6 7 8 8 8 8 9
3 3 3 3 3 3 2 2 2 2 2 2 1 2 3 2 2 1 1 1 1 1 2 1 1 2 2 2 2 3 3 2 2 1 1 4 4 6 7 8 8 8 9
4 4 3 3 3 3 3 2 2 2 2 2 2 2 3 2 2 1 1 1 1 1 1 2 2 2 2 2 3 3 3 2 3 2 2 2 3 5 6 7 8 8 9
4 4 4 4 3 3 3 2 2 2 2 2 2 2 3 3 3 2 2 1 1 1 2 2 2 2 2 3 3 2 2 3 2 2 2 2 1 3 5 7 8 7 7
3 3 4 3 3 3 3 2 2 2 2 2 2 2 2 3 3 2 2 2 1 2 2 2 2 2 2 2 2 2 2 2 2 2 2 2 2 1 2 4 5 6 7
3 3 3 3 3 3 3 2 2 2 1 1 2 2 2 2 3 3 2 2 2 2 2 3 2 2 3 3 2 2 2 2 2 2 3 2 2 2 1 2 3 3 5
3 3 3 2 3 3 2 2 2 2 1 1 1 1 2 2 2 2 2 2 2 2 2 3 3 2 2 3 3 3 2 1 1 2 2 2 2 2 2 2 1 1 3
2 2 2 2 2 2 2 2 2 1 1 1 0 1 2 2 2 2 2 2 2 3 3 3 3 3 2 2 3 2 3 2 2 1 1 1 1 1 2 1 1 1 0
2 2 2 2 2 2 3 2 2 2 1 1 0 1 1 2 2 2 2 2 2 2 3 3 3 2 1 1 3 3 1 1 2 1 1 0 1 1 1 1 1 1 0
2 2 2 2 2 2 2 2 2 2 1 1 0 0 1 1 2 2 2 2 2 3 3 3 4 4 3 1 2 3 3 3 1 1 0 0 1 0 1 0 1 1 1
3 2 2 2 2 2 3 4 4 3 2 1 1 1 0 1 1 1 2 2 2 2 3 3 3 2 4 3 1 1 1 3 3 1 1 1 1 1 1 1 1 1 1
2 2 2 2 2 2 3 3 4 2 1 1 1 1 0 0 1 1 2 2 2 2 3 3 3 3 3 3 2 1 1 1 1 2 2 2 1 2 2 2 2 2 2
2 2 2 2 2 2 2 3 3 3 3 2 2 1 1 1 1 1 2 2 2 2 3 3 3 4 3 3 2 2 2 2 2 2 2 2 2 2 2 2 2 2 2
Wind_Direction
164 172 144 135 129 124 119 113 109 106 105 103 101 98 96 95 93 93 91 95 98 100 105 103 103 103 100 100 99 99 99 98 96 94 90 93 98 100 100 96 92 88 94
154 156 137 131 129 125 122 116 111 110 109 107 107 104 104 104 100 99 97 97 104 102 103 101 101 105 104 102 103 103 102 98 95 90 85 86 94 101 103 100 99 101 100
138 143 136 127 126 124 121 117 113 113 117 117 114 112 113 112 110 105 103 106 109 104 103 103 101 104 105 106 106 107 104 101 96 88 84 81 96 105 107 107 107 107 104
133 133 132 124 128 129 127 124 118 116 119 122 120 119 119 121 122 116 111 109 112 109 105 106 104 104 107 108 108 109 106 105 99 91 82 78 96 111 112 112 110 107 105
124 125 133 125 128 136 137 134 132 126 125 128 128 128 126 127 131 123 117 107 109 110 111 110 107 104 103 104 105 108 106 100 94 86 81 82 90 115 114 114 113 110 109
122 123 132 125 129 134 142 141 138 133 132 131 129 129 132 133 128 120 116 110 107 115 121 118 114 107 101 102 103 108 108 100 92 81 88 92 102 118 117 116 116 116 115
130 128 136 127 127 127 136 142 138 137 138 138 135 135 134 135 132 128 125 120 119 121 127 124 119 115 109 104 104 103 103 97 94 88 92 102 111 117 118 119 118 118 118
139 136 137 134 129 124 129 135 131 134 135 131 131 133 132 134 135 130 126 125 127 126 125 125 123 119 113 107 102 101 100 98 96 95 95 112 121 119 122 122 123 122 121
134 131 130 137 135 127 120 129 129 134 135 126 122 116 115 120 121 127 126 127 131 130 126 124 124 119 111 105 99 98 96 91 90 95 108 117 125 125 125 128 127 126 125
126 135 139 140 134 127 122 116 124 118 121 119 113 103 97 102 112 114 112 127 129 129 125 125 125 120 110 105 101 98 96 90 85 86 102 129 129 129 128 129 132 131 127
128 143 143 145 141 137 138 122 115 108 108 113 110 102 99 94 109 114 114 122 124 128 127 125 123 113 98 98 101 100 97 92 93 87 116 132 136 134 131 130 131 133 132
174 177 156 151 151 143 142 120 120 112 113 114 115 109 99 93 101 108 120 118 120 124 128 126 121 110 89 84 94 96 94 102 102 97 134 139 145 141 137 135 135 131 133
186 174 165 161 156 147 148 144 138 124 124 133 138 124 113 97 83 83 96 98 100 109 116 112 101 92 92 97 96 101 108 102 102 108 139 142 147 143 140 140 139 136 135
176 178 170 165 155 156 151 150 153 152 154 167 161 149 132 118 101 99 112 116 106 116 118 102 105 106 99 107 113 114 112 105 105 103 124 133 140 145 145 144 143 141 141
179 182 179 167 161 163 152 161 148 163 173 176 171 163 146 139 143 138 143 128 121 126 136 125 119 116 114 115 111 116 123 116 108 92 103 123 132 142 150 149 145 146 147
187 186 186 168 164 158 161 167 167 170 170 164 166 174 156 145 146 148 137 138 141 145 148 142 139 123 111 103 97 101 113 110 99 91 84 103 120 136 152 154 150 149 147
190 185 180 172 156 153 159 163 159 166 156 157 167 168 161 149 148 149 147 153 166 146 128 116 108 102 104 92 86 86 100 97 100 99 89 79 87 121 142 147 148 150 151
176 179 180 171 155 153 150 146 147 153 153 163 165 154 155 154 151 151 153 167 170 141 129 126 118 110 107 104 96 86 91 98 96 98 90 82 71 58 118 129 145 150 156
167 165 167 158 157 158 150 141 131 133 146 161 155 149 154 150 153 155 162 169 160 142 133 135 121 127 122 111 102 86 80 94 101 98 89 88 87 80 73 92 119 148 162
155 154 157 152 157 153 138 123 114 108 112 129 145 152 146 147 151 147 155 154 156 146 138 133 130 115 125 126 100 74 54 63 86 94 102 92 80 93 79 66 78 138 163
121 132 154 153 162 150 146 148 145 152 146 137 150 143 144 146 151 150 148 154 157 156 157 149 137 128 121 127 102 70 31 34 54 62 75 106 101 107 93 90 95 69 188
146 149 162 164 165 166 166 167 165 161 157 170 174 111 137 147 153 151 156 166 162 149 148 158 146 141 143 153 133 120 93 8 9 8 355 125 160 116 121 124 120 118 106
160 177 180 171 159 161 148 133 115 93 79 78 99 131 114 134 128 132 158 161 168 166 170 173 170 160 167 189 148 149 159 193 260 320 336 236 181 182 207 172 163 177 189
187 181 166 160 149 146 141 145 147 154 164 185 179 161 118 103 112 130 154 160 169 169 173 184 180 171 167 181 181 152 152 153 157 193 303 300 250 218 213 232 215 214 211
169 157 143 137 135 131 136 151 155 154 161 142 144 123 89 34 147 153 160 163 178 183 184 185 183 178 176 181 176 160 121 97 129 162 226 261 282 261 229 223 223 228 223
127 128 121 120 130 138 136 143 154 157 159 147 151 176 205 240 213 187 175 181 190 191 189 191 190 190 189 181 178 170 170 169 179 171 193 225 245 268 259 239 225 226 227